Location: Helsinki
(60.1699°N, 24.9384°E)
Time: 12:24:14
(UTC+02:00)

Transit 2A Rocket - Pass Details

Date: 22 September 2023
Orbit: 593 x 903 km, 66.7° (Epoch: 06 December)

Event Time Altitude Azimuth Distance (km) Brightness Sun altitude
Rises 01:16:50 0° 309° (NW) 3,021 8.6 -29.3°
Reaches altitude 10° 01:19:25 10° 299° (WNW) 2,058 7.5 -29.3°
Enters shadow 01:20:33 16° 291° (WNW) 1,677 6.9 -29.3°
Maximum altitude 01:23:25 30° 239° (WSW) 1,126 - -29.3°
Drops below altitude 10° 01:27:13 10° 178° (S) 1,949 - -29.2°
Sets 01:29:36 0° 167° (SSE) 2,832 - -29.2°
